Location: Unspecified
(0.0000°N, 0.0000°E)
Time: 06:36:04
(UTC+00:00)

Vanguard 1 Rocket - Pass Details

Date: 14 December 2017
Orbit: 652 x 4225 km, 34.3° (Epoch: 21 July)

Event Time Altitude Azimuth Distance (km) Brightness Sun altitude
Exits shadow 04:05:58 17° 260° (W) 6,242 11.2 -24.8°
Maximum altitude 04:18:21 28° 219° (SW) 4,484 10.7 -22.0°
Drops below altitude 10° 04:29:39 10° 164° (SSE) 4,542 11.5 -19.4°
Sets 04:33:19 0° 151° (SSE) 5,070 12.1 -18.6°
